Temp
10 10 10 10 9 8 8 8 8 8 8 7 7 7 7 6 6 6 5 5 5 5 5 5 5 5 5 4 4 3 3 2 1 0 0 0 -0 -2 -2 -1 -2 -2 -1
9 9 9 9 8 8 8 8 8 7 7 7 7 6 6 6 5 5 5 5 4 4 4 5 5 5 4 4 4 3 3 1 0 0 -0 -0 -1 -2 -2 -2 -2 -2 -2
8 7 7 7 7 7 8 8 8 7 7 7 7 6 5 5 4 5 4 4 4 3 3 3 4 4 4 4 3 2 1 1 0 -0 -0 -1 -1 -2 -2 -3 -3 -3 -3
6 6 6 6 6 6 7 7 7 7 7 7 6 5 4 4 5 4 4 3 3 3 3 3 3 3 3 3 3 2 1 0 -0 -1 -1 -1 -2 -2 -3 -3 -3 -3 -3
5 5 5 5 5 5 6 6 6 6 6 6 5 5 5 5 4 4 3 3 1 2 2 3 3 2 2 2 2 2 1 -0 -1 -1 -1 -1 -2 -2 -3 -4 -4 -4 -4
4 4 4 4 4 4 4 4 4 4 4 4 4 4 4 4 4 4 3 3 3 2 2 2 2 2 2 1 1 1 0 -1 -1 -1 -2 -2 -2 -3 -3 -4 -6 -5 -4
3 3 3 3 3 3 4 4 4 4 4 4 4 5 4 4 4 4 3 3 3 3 2 2 2 1 1 0 0 0 -1 -1 -1 -2 -3 -4 -4 -4 -3 -6 -8 -5 -5
3 3 2 2 2 2 3 4 4 4 4 5 5 5 4 4 3 3 2 2 2 2 1 1 1 0 1 -0 -1 -1 -1 -1 -2 -4 -4 -5 -5 -4 -4 -6 -7 -6 -6
1 1 2 1 1 1 2 3 3 3 4 4 4 4 4 4 3 3 2 1 1 1 0 -0 -1 -1 -0 -1 -1 -2 -1 -1 -4 -5 -5 -5 -4 -4 -5 -7 -7 -6 -6
1 1 0 1 1 1 2 2 2 2 2 2 3 2 2 2 2 1 1 0 -1 -1 -1 -1 -2 -2 -2 -1 -2 -2 -3 -4 -5 -5 -5 -5 -5 -6 -8 -9 -7 -6 -6
0 0 -0 -0 0 0 0 0 0 0 0 -0 -0 -1 -1 -1 -1 -2 -2 -2 -2 -3 -3 -4 -3 -3 -4 -5 -6 -6 -6 -6 -6 -6 -6 -7 -7 -8 -9 -9 -7 -7 -7
-1 -1 -1 -1 -1 -1 -1 -1 -2 -2 -3 -3 -3 -3 -3 -4 -4 -4 -4 -5 -6 -6 -6 -7 -7 -7 -6 -6 -6 -6 -6 -7 -7 -8 -9 -8 -9 -10 -10 -8 -8 -7 -7
-2 -2 -2 -3 -3 -3 -3 -4 -4 -4 -4 -4 -5 -5 -5 -5 -6 -7 -7 -7 -7 -7 -7 -7 -7 -7 -7 -7 -7 -7 -7 -7 -9 -10 -10 -10 -10 -10 -9 -9 -8 -7 -7
-3 -4 -4 -4 -4 -5 -5 -5 -5 -5 -6 -6 -6 -6 -7 -7 -8 -7 -7 -7 -7 -7 -7 -7 -6 -7 -7 -7 -7 -7 -8 -9 -10 -10 -10 -10 -10 -10 -9 -9 -8 -7 -8
-5 -5 -5 -6 -6 -6 -6 -6 -6 -6 -6 -7 -7 -7 -7 -7 -7 -7 -8 -8 -8 -8 -8 -8 -8 -8 -8 -8 -9 -9 -9 -10 -10 -10 -10 -10 -9 -9 -10 -9 -9 -8 -8
-5 -6 -6 -6 -6 -6 -6 -7 -7 -7 -7 -7 -8 -7 -8 -8 -8 -8 -8 -8 -8 -8 -9 -9 -9 -9 -9 -10 -10 -10 -10 -10 -10 -10 -10 -9 -9 -10 -10 -10 -9 -9 -8
-6 -7 -7 -7 -7 -7 -7 -8 -8 -9 -8 -8 -8 -8 -8 -8 -8 -8 -8 -8 -9 -9 -10 -10 -10 -10 -10 -10 -10 -10 -10 -10 -11 -11 -10 -9 -10 -10 -10 -9 -9 -9 -9
-7 -7 -8 -8 -8 -8 -8 -9 -9 -9 -9 -9 -9 -9 -9 -9 -9 -9 -9 -10 -10 -10 -11 -11 -11 -11 -10 -10 -10 -10 -10 -11 -11 -11 -10 -10 -10 -10 -10 -10 -10 -9 -9
-8 -9 -9 -9 -9 -9 -9 -9 -9 -10 -10 -10 -10 -10 -10 -10 -10 -10 -10 -10 -11 -11 -11 -11 -11 -11 -10 -10 -10 -10 -10 -10 -10 -9 -9 -10 -10 -10 -10 -10 -10 -10 -9
-9 -9 -9 -9 -9 -10 -10 -10 -10 -11 -11 -11 -11 -11 -11 -11 -11 -11 -11 -11 -11 -11 -11 -11 -11 -11 -11 -10 -10 -10 -10 -10 -10 -9 -10 -10 -11 -10 -10 -10 -10 -10 -10
-9 -9 -10 -10 -10 -10 -10 -10 -11 -11 -11 -11 -11 -12 -12 -12 -12 -11 -11 -11 -11 -11 -11 -11 -11 -11 -11 -11 -10 -10 -10 -10 -10 -10 -10 -10 -11 -11 -10 -10 -10 -10 -10
-10 -10 -10 -11 -11 -11 -11 -12 -12 -12 -12 -12 -12 -12 -13 -13 -12 -12 -12 -12 -12 -11 -12 -12 -12 -11 -11 -11 -11 -11 -10 -11 -11 -10 -10 -11 -11 -11 -11 -10 -10 -10 -10
-11 -11 -12 -12 -13 -13 -13 -14 -14 -14 -14 -14 -14 -14 -13 -13 -14 -13 -13 -13 -12 -12 -12 -12 -12 -12 -12 -11 -11 -11 -11 -11 -11 -11 -10 -10 -11 -11 -11 -11 -10 -10 -10
-13 -13 -14 -14 -15 -15 -16 -17 -17 -17 -17 -17 -17 -16 -15 -14 -14 -14 -14 -14 -13 -13 -13 -13 -13 -13 -12 -12 -12 -11 -11 -11 -11 -11 -11 -11 -11 -11 -11 -11 -11 -11 -11
-15 -16 -16 -17 -18 -18 -19 -19 -20 -20 -20 -20 -19 -18 -18 -17 -16 -16 -15 -15 -15 -14 -14 -13 -13 -13 -13 -13 -12 -12 -12 -11 -11 -11 -11 -11 -11 -11 -11 -11 -11 -11 -11
-18 -19 -19 -20 -20 -20 -20 -21 -21 -21 -21 -21 -21 -20 -19 -18 -18 -17 -17 -17 -16 -16 -15 -14 -14 -14 -13 -13 -13 -12 -12 -12 -11 -11 -11 -11 -11 -11 -11 -11 -11 -11 -11
Height
3090 3087 3084 3080 3077 3076 3076 3076 3075 3074 3073 3071 3070 3068 3067 3066 3065 3063 3061 3059 3057 3054 3052 3050 3048 3045 3044 3041 3039 3036 3034 3034 3031 3032 3029 3031 3030 3031 3027 3024 3022 3020 3017
3079 3076 3073 3069 3065 3063 3064 3064 3064 3064 3063 3062 3060 3059 3059 3057 3055 3053 3051 3048 3046 3044 3041 3039 3037 3034 3032 3030 3027 3026 3024 3024 3023 3020 3018 3019 3018 3017 3016 3012 3010 3009 3007
3069 3066 3062 3059 3056 3053 3054 3054 3054 3053 3052 3051 3050 3049 3048 3046 3042 3041 3039 3036 3034 3032 3031 3029 3027 3024 3022 3020 3018 3015 3013 3012 3009 3009 3008 3006 3007 3006 3004 3002 3000 2998 2997
3061 3058 3054 3050 3048 3046 3044 3043 3042 3041 3041 3040 3038 3037 3034 3033 3031 3029 3024 3023 3018 3018 3018 3015 3016 3013 3012 3009 3006 3003 3001 3000 2999 2996 2994 2994 2994 2992 2992 2992 2991 2990 2989
3055 3052 3048 3044 3041 3038 3036 3034 3032 3031 3030 3029 3028 3025 3023 3021 3020 3016 3013 3008 2998 2999 3005 3004 3003 3001 2999 2996 2993 2992 2989 2987 2987 2984 2982 2982 2981 2980 2981 2981 2981 2980 2980
3049 3045 3041 3037 3035 3032 3029 3027 3024 3022 3020 3018 3016 3015 3013 3010 3008 3004 3001 2998 2995 2992 2990 2991 2989 2987 2985 2985 2982 2977 2971 2966 2967 2970 2969 2968 2967 2969 2970 2970 2971 2973 2972
3039 3036 3033 3029 3026 3024 3021 3018 3016 3014 3013 3011 3008 3005 3002 2998 2996 2993 2990 2987 2983 2982 2979 2978 2974 2973 2972 2971 2971 2964 2958 2955 2953 2955 2956 2955 2955 2957 2959 2959 2961 2963 2963
3029 3025 3023 3021 3016 3014 3012 3009 3007 3004 3001 2999 2996 2992 2989 2985 2982 2979 2977 2974 2972 2968 2966 2964 2961 2959 2957 2957 2955 2954 2951 2947 2945 2943 2944 2947 2946 2947 2946 2948 2949 2953 2955
3019 3015 3012 3008 3005 3004 3002 2999 2997 2993 2990 2988 2984 2981 2976 2972 2969 2965 2962 2959 2956 2953 2950 2949 2947 2945 2943 2942 2940 2936 2935 2933 2934 2934 2936 2938 2935 2935 2934 2937 2940 2944 2946
3010 3006 3003 2999 2995 2994 2990 2988 2984 2979 2976 2973 2969 2966 2960 2956 2953 2950 2947 2944 2940 2936 2933 2933 2931 2929 2927 2926 2924 2923 2921 2922 2924 2927 2925 2924 2923 2924 2927 2929 2932 2935 2939
2999 2995 2992 2989 2985 2982 2978 2974 2970 2966 2963 2959 2955 2951 2948 2943 2939 2935 2931 2927 2925 2922 2920 2919 2918 2916 2915 2913 2912 2913 2914 2914 2914 2914 2914 2914 2914 2918 2920 2923 2925 2927 2930
2990 2987 2983 2980 2977 2973 2969 2964 2959 2955 2951 2948 2944 2940 2936 2931 2927 2924 2921 2918 2915 2913 2911 2910 2910 2909 2908 2907 2907 2906 2905 2905 2906 2906 2907 2906 2909 2912 2914 2917 2919 2921 2923
2982 2979 2975 2971 2968 2963 2959 2955 2950 2947 2943 2940 2936 2932 2928 2925 2921 2919 2918 2916 2914 2912 2910 2907 2906 2905 2904 2902 2901 2900 2899 2898 2899 2902 2901 2904 2906 2906 2909 2912 2913 2915 2918
2974 2971 2967 2963 2959 2955 2951 2948 2945 2940 2937 2933 2929 2927 2924 2922 2919 2917 2915 2912 2909 2906 2904 2903 2901 2899 2897 2897 2895 2894 2893 2893 2894 2895 2897 2900 2902 2903 2904 2906 2907 2910 2913
2966 2963 2959 2955 2952 2949 2945 2943 2938 2934 2932 2929 2925 2922 2919 2917 2914 2911 2909 2906 2903 2900 2899 2897 2894 2892 2890 2889 2888 2887 2887 2888 2890 2891 2893 2896 2898 2900 2901 2902 2902 2905 2908
2959 2956 2953 2950 2946 2943 2940 2937 2932 2929 2926 2923 2919 2916 2913 2909 2907 2904 2901 2898 2896 2893 2891 2889 2887 2886 2885 2884 2883 2883 2884 2885 2886 2887 2889 2891 2894 2895 2897 2898 2898 2901 2904
2953 2950 2947 2944 2941 2938 2934 2931 2929 2924 2919 2916 2913 2909 2906 2904 2901 2897 2894 2891 2888 2886 2884 2882 2881 2881 2880 2879 2879 2879 2880 2881 2882 2883 2885 2887 2889 2892 2892 2895 2896 2898 2899
2949 2946 2943 2940 2937 2932 2928 2924 2921 2918 2915 2912 2908 2905 2902 2899 2896 2893 2890 2886 2883 2880 2879 2878 2878 2877 2877 2876 2876 2876 2876 2877 2878 2879 2882 2883 2885 2888 2890 2892 2894 2894 2896
2944 2940 2936 2932 2928 2924 2920 2917 2914 2911 2908 2905 2902 2900 2898 2895 2892 2889 2885 2882 2880 2878 2876 2875 2875 2874 2873 2873 2873 2873 2873 2874 2875 2876 2878 2880 2882 2884 2887 2889 2890 2892 2894
2935 2931 2928 2923 2919 2915 2912 2908 2905 2902 2899 2896 2894 2893 2891 2889 2886 2884 2881 2879 2877 2875 2874 2872 2872 2871 2870 2870 2870 2870 2871 2871 2872 2873 2873 2875 2878 2881 2883 2886 2888 2890 2892
2927 2923 2919 2914 2909 2905 2902 2898 2895 2891 2889 2886 2885 2883 2882 2881 2880 2878 2877 2875 2873 2871 2870 2870 2869 2868 2868 2868 2868 2868 2868 2868 2869 2870 2871 2872 2874 2877 2880 2882 2885 2888 2891
2917 2913 2909 2904 2899 2894 2889 2885 2882 2879 2876 2874 2872 2871 2871 2870 2870 2870 2870 2869 2868 2867 2866 2866 2866 2866 2866 2866 2866 2866 2866 2866 2867 2868 2869 2870 2871 2874 2877 2879 2882 2885 2889
2907 2902 2897 2892 2886 2880 2876 2872 2868 2865 2862 2860 2859 2858 2858 2859 2860 2861 2862 2862 2862 2862 2861 2861 2862 2862 2863 2863 2863 2864 2864 2864 2865 2866 2867 2868 2869 2871 2874 2877 2880 2884 2887
2897 2891 2885 2880 2875 2869 2865 2861 2858 2854 2851 2849 2847 2845 2845 2846 2848 2850 2852 2854 2855 2856 2856 2856 2857 2857 2858 2858 2859 2860 2861 2862 2862 2863 2864 2866 2868 2869 2872 2875 2878 2881 2885
2889 2883 2878 2873 2868 2863 2859 2855 2851 2848 2845 2842 2839 2837 2836 2835 2836 2838 2841 2845 2847 2849 2850 2851 2852 2852 2853 2853 2854 2855 2857 2858 2860 2861 2862 2864 2866 2868 2870 2873 2876 2879 2882
2884 2880 2875 2871 2866 2862 2857 2853 2848 2845 2842 2839 2836 2833 2830 2829 2828 2830 2834 2837 2840 2842 2844 2845 2847 2848 2848 2849 2849 2850 2851 2853 2855 2857 2859 2861 2863 2865 2868 2871 2874 2877 2880
Wind_Speed
34 37 39 42 45 43 41 34 32 31 29 29 30 32 33 35 37 37 36 37 37 34 31 32 30 31 32 34 38 35 32 36 35 34 36 32 32 31 34 38 36 38 36
35 34 35 41 44 44 44 42 39 37 37 35 35 33 36 38 39 40 42 40 41 38 38 37 36 45 46 40 39 36 39 40 37 35 40 34 36 36 38 40 36 36 33
32 30 31 34 35 35 41 44 42 44 43 42 42 42 42 42 50 44 48 47 44 38 37 39 42 42 40 40 42 42 34 41 41 39 41 39 39 39 40 42 39 36 32
29 28 27 28 30 30 35 41 41 44 45 45 40 40 44 49 51 48 53 51 46 47 41 42 43 42 41 44 48 42 43 44 40 45 44 45 45 46 41 40 37 34 32
28 28 25 24 23 24 27 29 32 33 37 43 44 39 39 41 47 53 54 52 49 43 43 43 44 41 43 45 46 47 53 48 45 43 43 45 48 47 38 35 35 33 31
27 26 24 22 23 23 23 25 27 29 30 32 41 43 43 39 43 44 49 51 48 46 45 46 47 48 45 46 50 57 59 53 51 49 52 52 53 52 40 36 32 32 32
33 35 34 27 25 29 30 31 33 34 35 37 39 43 46 46 45 43 44 47 50 52 51 50 51 50 46 46 46 66 55 54 54 58 58 58 53 41 41 34 28 31 30
41 40 42 41 39 34 36 37 40 43 43 46 49 50 52 52 51 51 50 51 52 53 53 52 51 49 52 49 45 48 59 63 61 61 55 47 38 42 43 33 30 27 29
38 36 36 35 35 44 42 42 42 44 46 48 52 54 55 57 56 55 55 54 54 55 56 54 50 48 47 55 55 51 55 64 60 50 43 40 41 43 40 31 21 28 27
44 36 37 37 36 36 39 41 41 43 44 44 47 48 50 52 53 54 54 53 53 54 54 54 52 52 53 52 51 57 59 54 43 39 41 39 39 34 25 18 23 26 25
43 42 42 42 39 39 39 40 40 41 42 43 42 42 42 41 42 43 44 43 43 43 41 41 43 44 43 40 36 31 28 31 34 35 34 31 27 23 16 20 24 24 24
34 34 33 34 35 36 38 40 40 41 41 40 40 38 37 34 32 31 31 32 32 29 25 22 21 21 20 21 22 22 22 24 26 27 25 23 21 16 15 20 22 22 22
30 30 32 33 33 34 33 33 33 32 32 31 29 28 26 24 22 20 22 21 22 22 22 23 16 18 20 20 21 21 22 21 20 22 19 16 13 13 16 19 17 18 19
30 31 31 30 30 28 26 24 24 25 24 24 22 21 22 23 23 24 25 26 25 22 19 19 20 20 21 21 23 23 23 20 20 18 17 16 15 17 18 19 17 18 18
28 27 26 24 23 23 25 26 27 27 26 24 24 25 25 26 27 28 27 25 24 24 23 22 21 22 22 21 20 19 19 20 19 18 17 15 18 21 19 18 16 16 16
25 24 24 25 27 28 29 29 30 28 27 27 27 27 26 28 29 28 28 28 27 27 25 24 23 22 21 19 17 17 18 19 18 17 16 18 20 20 18 15 15 15 15
25 25 27 27 28 27 25 25 23 23 25 24 24 24 23 23 23 23 23 23 23 23 21 19 19 19 17 17 17 17 17 17 15 13 18 20 19 18 15 15 14 13 12
26 27 27 27 27 28 28 27 26 25 22 23 23 22 20 19 18 18 18 18 18 16 14 16 16 15 16 15 15 15 12 10 10 11 17 21 20 18 15 14 12 11 11
26 26 26 27 27 28 29 29 29 28 27 25 23 23 22 20 19 18 17 17 16 16 14 13 14 13 12 13 12 10 7 9 12 15 20 22 19 17 15 13 11 11 13
28 30 31 31 32 32 32 32 32 31 30 28 27 25 23 21 19 19 18 18 16 15 12 11 11 11 10 11 12 12 10 10 11 13 15 20 20 19 16 14 13 13 14
32 33 34 35 36 36 36 35 34 33 33 31 30 29 27 24 21 20 18 17 16 15 13 13 10 9 8 8 5 4 10 10 9 11 12 14 17 18 17 16 15 15 15
35 37 38 39 40 40 39 39 38 37 36 35 34 32 30 28 26 23 20 18 16 15 14 13 10 10 8 7 7 6 5 8 9 8 9 11 15 16 17 18 17 16 17
40 40 40 39 38 37 36 36 35 35 36 35 34 34 33 31 29 27 23 19 17 15 14 14 14 13 12 11 10 9 8 6 9 8 8 9 12 15 16 17 17 17 18
37 37 37 36 35 33 32 30 27 27 27 28 29 30 31 31 29 28 26 23 19 17 15 15 16 15 13 14 14 14 11 10 8 10 9 9 10 13 15 16 17 17 18
32 31 29 28 27 26 24 22 21 20 20 21 21 22 22 22 22 24 25 23 20 19 18 16 14 13 14 16 17 17 15 14 12 11 11 11 11 12 14 16 17 17 19
26 25 25 24 24 23 22 20 18 16 15 14 14 15 14 13 14 16 18 19 20 20 19 18 15 14 11 11 11 11 13 14 14 13 13 13 13 13 15 16 17 17 18
Wind_Direction
291 289 287 279 266 261 263 257 256 260 261 264 265 263 265 270 272 275 280 284 286 291 297 297 297 297 293 282 283 282 263 286 281 274 271 274 272 275 286 289 273 276 280
298 292 283 274 276 262 257 254 254 255 255 258 262 264 266 273 275 278 280 279 281 285 292 288 289 301 293 286 284 278 267 280 281 272 269 275 275 285 282 292 279 279 283
294 286 281 280 284 269 258 258 258 258 258 260 262 263 267 267 271 274 271 273 277 276 284 286 290 292 288 291 288 276 275 277 279 273 269 276 275 277 282 290 279 281 286
284 282 285 285 280 281 270 266 266 262 262 263 267 270 270 268 262 263 264 272 264 282 279 279 284 287 290 293 289 274 272 278 275 269 267 273 274 273 280 283 276 279 284
283 278 279 284 285 280 275 270 266 264 265 267 273 274 277 278 275 266 274 274 284 280 280 279 283 283 294 287 287 264 276 272 267 269 271 272 273 273 276 268 271 278 281
290 281 278 277 280 282 282 275 274 274 279 279 282 280 288 283 279 274 273 277 277 278 278 281 283 281 290 287 281 278 263 259 255 263 260 265 268 269 270 261 267 276 276
291 289 285 284 286 292 290 290 289 286 281 278 278 282 287 288 283 280 278 276 274 276 279 280 280 283 283 289 278 267 249 255 256 253 256 258 264 273 266 256 262 273 277
299 290 289 288 284 296 293 289 287 289 289 290 286 285 283 281 282 284 283 281 279 279 279 279 278 279 281 283 274 275 272 262 265 253 254 262 275 272 266 253 252 268 276
308 296 298 290 285 274 294 286 285 280 281 281 282 282 282 282 282 281 282 281 280 279 278 275 274 274 282 281 272 288 281 269 253 252 258 271 272 268 254 249 249 266 266
303 295 293 293 289 285 284 285 288 289 288 289 288 286 285 284 283 282 281 280 278 278 278 275 275 277 275 274 279 269 252 253 257 263 266 260 261 252 238 235 254 262 266
300 295 292 297 299 301 301 301 301 300 300 301 300 299 298 297 295 293 291 287 283 281 282 279 273 268 265 262 261 261 263 261 263 263 261 258 249 232 230 245 253 259 259
301 302 302 303 304 305 305 306 308 308 308 308 310 312 311 309 304 301 299 298 294 291 289 286 286 281 279 276 273 267 267 270 271 263 253 247 228 226 243 252 256 256 252
305 307 307 307 308 308 309 309 309 310 310 311 314 314 316 317 319 313 310 312 313 311 311 315 313 297 289 287 283 282 281 279 259 244 242 235 238 248 253 260 254 245 238
310 311 312 313 314 315 318 319 320 320 319 318 319 319 319 316 306 309 308 310 308 303 300 292 293 290 284 279 277 277 278 270 253 242 237 238 245 248 253 250 239 235 236
313 315 316 317 317 317 316 315 314 313 312 309 304 303 301 298 298 301 301 301 297 294 291 289 287 283 282 283 275 272 269 256 245 243 237 235 244 248 249 246 231 232 238
312 312 311 310 311 311 311 311 310 308 305 304 303 302 302 300 299 296 294 293 290 287 285 283 278 278 284 278 276 273 266 254 252 243 235 237 244 242 244 235 231 234 231
309 309 310 311 311 311 312 312 313 315 313 311 310 310 309 308 306 306 302 297 292 287 280 271 271 276 277 278 274 268 260 254 246 231 241 236 232 232 229 227 229 228 224
310 308 307 306 306 306 307 308 308 308 307 308 309 310 309 309 312 312 310 308 306 294 282 279 275 273 275 271 269 259 256 264 258 238 234 239 233 234 227 224 229 220 216
302 304 306 308 308 308 307 306 304 303 302 300 299 299 301 303 306 311 316 318 314 302 291 279 277 277 273 265 263 250 252 262 253 237 232 235 230 230 225 222 221 210 207
311 310 309 307 306 305 303 301 298 296 294 293 292 290 289 292 297 301 302 303 307 306 295 288 279 276 275 265 263 244 235 247 240 240 240 231 227 223 223 216 210 206 200
310 310 309 307 305 303 300 297 294 292 289 285 283 282 282 281 281 283 286 292 292 291 283 281 282 277 266 255 257 289 252 229 238 238 243 229 221 218 217 209 200 200 197
311 308 306 303 300 298 296 293 290 288 284 280 277 274 272 273 272 271 273 277 284 287 272 263 267 262 253 264 265 258 273 243 227 233 237 232 218 215 212 204 199 196 196
310 309 308 307 305 303 300 296 292 288 284 282 278 272 268 264 262 262 261 263 267 272 271 259 258 259 258 258 262 262 259 258 238 223 228 226 217 213 207 202 200 198 197
316 316 317 316 313 311 308 305 301 296 292 289 285 280 273 266 259 254 253 253 254 256 258 257 257 259 255 250 250 252 250 247 238 226 217 219 212 208 208 205 203 201 199
328 329 330 331 332 331 327 320 314 309 308 308 305 298 289 276 262 247 241 240 241 243 248 252 256 260 261 259 252 249 250 242 236 228 218 214 214 209 206 205 204 201 201
350 353 354 355 355 354 352 348 342 333 328 329 333 329 315 293 262 236 226 225 231 237 245 249 252 255 261 260 255 242 238 234 226 221 215 212 212 208 205 204 202 202 202